Lapse_Rate
5.6 5.7 5.8 5.7 5.6 5.8 6.0 5.9 5.9 5.9 5.8 5.6 5.6 5.5 5.4 5.1 5.1 5.2 5.2 5.1 5.1 5.2 5.2 5.2 5.3 5.3 5.4 5.2 5.1 5.3 5.5 5.5 5.5 5.4 5.3 5.4 5.4 5.5 5.5 5.5 5.5 5.6 5.6
5.6 5.6 5.8 5.7 5.6 5.7 6.0 5.9 5.8 6.0 5.9 5.8 5.7 5.5 5.6 5.4 5.1 5.1 5.2 5.2 5.1 5.1 5.1 5.2 5.3 5.3 5.3 5.3 5.1 5.1 5.2 5.4 5.4 5.5 5.4 5.2 5.2 5.3 5.4 5.5 5.5 5.5 5.5
5.8 5.7 5.8 5.7 5.7 5.6 5.8 5.8 5.8 5.9 5.9 5.9 5.7 5.7 5.4 5.5 5.5 5.2 5.0 5.1 5.2 5.1 5.2 5.2 5.2 5.2 5.3 5.4 5.3 5.2 5.2 5.3 5.4 5.4 5.4 5.4 5.4 5.3 5.2 5.3 5.4 5.5 5.6
5.9 5.8 5.6 5.8 5.7 5.6 5.6 5.8 5.8 5.9 5.8 5.8 5.8 5.7 5.6 5.5 5.5 5.5 5.3 5.1 5.1 5.1 5.0 5.1 5.2 5.2 5.2 5.3 5.4 5.4 5.3 5.3 5.3 5.5 5.5 5.5 5.5 5.5 5.5 5.5 5.5 5.4 5.4
6.2 5.9 5.8 5.8 5.7 5.7 5.7 5.7 5.8 5.9 5.9 5.8 5.8 5.7 5.5 5.5 5.3 5.3 5.4 5.3 5.1 5.0 5.0 5.0 5.1 5.2 5.2 5.2 5.3 5.3 5.3 5.4 5.4 5.3 5.3 5.4 5.4 5.4 5.4 5.4 5.5 5.4 5.4
6.3 6.3 5.9 5.8 5.7 5.8 5.8 5.7 5.8 6.0 6.1 6.0 5.9 5.9 5.6 5.5 5.4 5.4 5.3 5.3 5.2 5.1 5.1 5.0 5.1 5.0 5.0 5.1 5.1 5.1 5.3 5.3 5.3 5.4 5.4 5.3 5.3 5.4 5.4 5.4 5.4 5.4 5.3
6.3 6.2 5.9 5.9 6.0 5.8 5.7 5.5 5.7 5.9 6.1 6.0 6.0 5.9 5.9 5.8 5.6 5.5 5.5 5.3 5.3 5.3 5.2 5.2 5.2 5.2 5.1 5.0 5.1 5.1 5.2 5.2 5.3 5.3 5.3 5.4 5.3 5.4 5.5 5.4 5.5 5.4 5.4
6.3 6.1 6.1 5.9 6.0 5.9 5.9 5.7 5.6 5.6 5.8 5.9 5.8 5.9 5.9 5.8 5.8 5.7 5.6 5.6 5.6 5.5 5.5 5.4 5.3 5.3 5.3 5.3 5.2 5.1 5.2 5.2 5.2 5.3 5.3 5.3 5.4 5.4 5.4 5.4 5.4 5.3 5.3
6.1 6.3 6.2 5.9 5.9 6.0 5.9 5.8 5.7 5.6 5.5 5.5 5.6 5.7 5.7 5.7 5.7 5.8 5.8 5.8 5.8 5.6 5.7 5.6 5.6 5.7 5.6 5.4 5.4 5.3 5.2 5.2 5.2 5.2 5.3 5.3 5.3 5.2 5.2 5.3 5.2 5.2 5.3
6.6 6.3 6.2 6.1 6.1 6.2 6.2 6.1 6.0 5.9 5.8 5.7 5.7 5.4 5.4 5.5 5.5 5.6 5.7 5.7 5.7 5.8 5.7 5.7 5.6 5.5 5.6 5.6 5.5 5.3 5.3 5.3 5.3 5.4 5.4 5.3 5.3 5.2 5.2 5.2 5.1 5.1 5.1
6.5 6.3 6.3 6.3 6.3 6.3 6.4 6.3 6.2 6.2 6.1 5.9 5.7 5.5 5.6 5.6 5.7 5.6 5.4 5.3 5.2 5.6 5.7 5.9 5.7 5.5 5.4 5.6 5.6 5.5 5.4 5.5 5.6 5.5 5.4 5.4 5.5 5.5 5.4 5.3 5.2 5.1 5.1
6.4 6.1 6.0 6.1 6.1 6.2 6.2 6.1 6.2 6.2 6.0 6.2 6.2 6.0 5.9 5.7 5.6 5.7 5.8 5.5 5.5 5.4 5.7 5.6 5.9 5.8 5.4 5.3 5.4 5.6 5.8 5.7 5.8 5.8 5.6 5.5 5.5 5.5 5.5 5.5 5.4 5.3 5.1
5.8 6.1 6.2 6.0 6.0 6.0 5.7 6.0 6.1 6.1 5.9 6.0 5.9 6.0 6.0 6.2 6.2 6.1 6.1 5.8 5.8 5.8 5.9 5.8 6.0 5.9 5.9 5.9 5.7 5.6 5.7 5.9 5.8 5.9 5.9 5.9 5.8 5.5 5.5 5.6 5.6 5.6 5.5
6.0 5.9 5.7 5.8 5.8 5.9 5.6 5.7 5.6 5.7 5.9 6.0 6.0 6.0 6.0 6.0 5.8 6.0 6.0 5.8 6.0 6.2 6.4 6.9 6.9 6.6 6.1 5.9 5.7 5.3 5.5 5.8 5.8 5.6 5.8 5.9 5.8 5.8 5.7 5.8 5.7 5.7 5.5
6.1 5.9 5.3 5.4 5.5 5.5 5.2 5.6 5.5 5.8 5.9 6.1 6.2 6.2 6.2 6.0 5.9 5.7 5.6 5.5 5.5 5.9 6.4 6.9 6.9 6.7 6.5 5.9 5.7 5.4 5.5 5.6 5.4 5.7 5.6 5.8 5.8 5.7 5.6 5.6 5.8 5.7 5.7
5.6 5.5 5.7 5.1 5.4 5.3 5.4 5.6 5.5 5.7 6.0 6.2 6.3 6.4 6.4 6.3 5.9 5.7 5.6 5.3 5.1 5.2 5.3 6.2 6.5 6.4 5.9 6.2 6.2 5.7 5.8 5.8 5.7 5.9 5.6 5.8 5.3 5.3 5.5 5.5 5.6 5.5 5.5
5.1 5.2 5.5 5.3 5.2 5.2 5.4 5.4 5.2 5.1 5.4 5.8 6.1 6.3 6.4 6.2 6.0 5.8 5.9 5.7 5.3 5.1 5.1 6.3 6.1 5.9 5.9 5.9 6.2 5.9 6.1 5.6 5.6 5.9 5.6 5.7 5.7 5.5 5.3 5.5 5.7 5.6 5.3
6.2 5.9 5.9 6.0 5.7 5.3 5.1 5.1 5.4 5.1 5.4 5.5 5.7 5.9 6.0 5.8 5.7 5.8 5.7 5.6 5.4 5.5 5.2 5.7 6.2 6.4 6.2 6.1 6.1 6.0 5.9 5.8 5.7 5.9 5.9 5.8 5.9 5.8 5.5 5.5 5.6 5.5 5.7
6.6 6.6 6.2 6.1 5.8 5.5 5.5 5.3 5.2 5.3 5.3 5.5 5.4 5.7 5.3 5.7 5.8 5.8 5.8 5.5 5.6 5.7 5.4 5.5 5.9 5.9 6.0 6.2 6.0 6.0 6.1 5.9 5.7 5.5 5.5 5.6 5.9 5.7 5.6 5.6 5.9 5.8 5.8
6.7 6.6 6.6 6.4 6.4 6.1 5.9 5.7 5.8 5.6 5.9 5.5 5.4 5.7 5.9 6.0 5.9 5.9 5.7 5.7 5.7 5.6 5.8 5.6 5.8 6.1 5.9 6.1 6.0 6.1 6.0 5.9 5.8 5.7 5.6 5.7 5.7 5.8 5.7 5.6 5.9 6.0 6.2
7.0 6.7 6.8 6.8 6.7 6.4 6.2 6.0 6.1 6.0 6.0 6.0 6.1 6.2 6.2 6.0 6.0 6.1 6.1 6.0 5.9 5.9 5.8 5.9 6.0 6.1 6.3 6.4 6.2 6.1 6.1 6.1 6.0 5.8 5.9 6.0 6.1 6.3 6.1 5.7 5.8 6.1 6.0
7.4 7.1 7.0 7.1 6.9 6.8 6.8 6.7 6.6 6.6 6.6 6.5 6.5 6.4 6.3 6.2 6.1 5.9 5.9 5.8 5.7 5.8 6.0 5.9 5.9 5.9 6.0 6.0 6.1 5.9 5.8 5.7 6.0 6.4 5.9 6.0 6.1 6.3 6.6 6.7 6.4 6.2 6.2
7.6 7.5 7.5 7.4 7.3 7.1 7.3 7.0 7.0 6.8 6.8 6.7 6.5 6.3 6.1 6.1 6.1 6.0 6.0 6.1 6.2 6.2 6.1 5.7 5.6 5.6 5.6 5.7 5.6 5.6 6.0 6.0 6.1 6.1 6.1 6.4 6.5 6.8 6.9 7.1 7.2 7.1 6.7
7.8 7.5 7.5 7.4 7.4 7.4 7.2 7.0 7.0 6.9 6.8 6.6 6.6 6.5 6.3 6.3 6.2 6.3 6.3 6.0 6.0 5.9 5.9 6.0 5.8 5.6 5.5 5.4 5.5 5.6 5.5 5.8 5.7 5.8 5.8 6.0 6.2 6.5 6.7 7.1 7.4 7.2 7.3
7.0 7.3 7.3 7.4 7.2 7.2 7.3 7.3 7.0 6.8 6.9 7.0 6.8 6.5 6.2 6.2 6.2 6.2 6.4 6.3 6.2 6.1 6.2 6.1 6.0 6.1 6.0 6.0 6.0 5.9 5.8 5.9 6.1 5.9 6.0 5.8 6.2 6.3 6.5 6.6 6.7 7.1 7.3
6.6 6.8 6.9 7.2 7.3 7.4 7.4 7.5 7.4 7.4 7.3 7.3 7.3 7.1 6.9 6.7 6.5 6.5 6.4 6.5 6.6 6.5 6.5 6.1 6.2 5.7 5.7 5.5 5.8 5.8 6.0 5.9 5.9 5.9 6.2 5.9 6.1 6.0 6.1 6.8 6.8 6.9 7.0
Wind_Speed
12 13 12 14 14 12 12 10 10 10 8 7 7 7 6 5 5 8 11 7 9 7 7 6 7 6 6 7 7 6 6 5 6 5 5 5 5 5 6 5 5 5 6
12 12 13 12 12 13 12 11 10 10 8 8 7 6 6 6 5 5 11 10 5 8 6 7 8 7 6 4 5 5 5 4 4 4 5 4 5 4 3 3 2 3 3
16 13 13 12 13 13 12 11 10 8 7 7 7 6 6 5 6 5 5 8 13 8 5 6 8 6 7 7 6 5 5 6 5 5 5 4 5 5 3 3 2 1 1
16 15 13 13 15 13 13 11 10 6 6 5 5 7 6 6 5 5 5 6 6 10 12 7 6 7 8 8 7 8 8 7 7 6 7 7 7 7 6 5 4 4 4
16 15 13 14 16 14 12 11 7 7 6 6 5 5 6 6 7 8 7 8 7 7 7 18 11 8 9 10 11 11 11 10 10 11 10 10 10 10 9 8 8 8 7
17 15 13 14 17 13 10 9 8 8 6 6 5 5 5 6 7 8 9 10 10 10 9 9 13 15 17 12 14 13 14 14 13 13 14 13 13 12 12 12 12 11 11
17 17 15 16 17 9 9 10 8 9 7 6 5 5 5 7 7 9 10 10 12 12 11 11 12 11 17 22 17 18 18 17 17 16 16 16 16 16 16 15 15 15 14
17 17 16 16 19 10 10 10 10 8 7 8 6 5 4 7 9 10 11 11 12 12 13 14 14 13 13 13 16 24 22 21 20 20 19 19 19 19 19 18 18 18 18
21 19 18 17 19 16 11 12 12 12 8 8 11 5 4 4 3 5 10 9 11 12 14 14 16 16 17 17 15 17 25 25 23 22 22 22 23 22 22 21 21 21 21
21 21 20 20 20 19 13 12 15 11 11 10 9 10 8 5 3 3 5 7 9 11 13 15 16 18 19 20 21 21 17 30 32 27 26 25 24 25 25 24 24 24 24
23 22 22 21 20 18 18 14 13 14 11 10 9 8 10 8 8 7 6 7 7 8 11 15 17 18 19 21 22 24 28 31 29 32 30 29 28 27 26 27 26 27 26
12 18 21 21 21 20 16 16 17 15 13 12 10 10 8 7 8 8 8 8 9 6 7 11 13 17 18 19 23 26 25 32 36 37 33 32 32 31 31 30 30 30 30
9 13 17 14 15 20 19 20 15 15 15 14 14 10 10 10 9 7 8 9 9 7 6 5 11 16 17 19 22 24 28 33 35 38 37 35 35 35 34 34 33 33 32
8 13 14 19 20 23 19 20 13 13 14 13 17 14 12 12 11 10 10 9 10 10 10 10 8 14 16 20 22 25 24 29 36 41 41 38 37 37 37 37 37 37 36
4 8 15 13 17 13 14 17 12 15 15 15 15 15 14 12 12 11 11 11 10 12 13 11 10 15 14 18 20 20 23 26 34 39 41 38 37 38 39 40 39 40 39
5 2 1 3 8 13 17 12 10 11 12 12 12 16 16 14 14 12 12 12 11 12 13 12 11 11 18 18 19 19 25 27 30 34 37 38 39 39 38 38 40 41 41
11 9 5 7 10 8 8 9 9 11 13 14 14 15 17 17 13 12 11 12 12 12 13 14 12 13 15 13 18 22 23 24 25 31 36 39 40 41 39 40 38 39 40
3 5 8 10 9 10 12 11 11 12 14 15 15 15 18 12 16 16 11 15 14 14 9 18 15 12 13 11 16 14 21 24 22 24 30 38 40 40 40 38 40 41 43
2 3 3 5 13 13 11 11 12 13 14 15 14 12 16 17 14 12 12 12 13 12 12 10 14 12 11 12 12 12 13 16 23 27 30 36 39 40 35 36 38 38 41
1 2 3 3 4 7 11 10 12 13 12 13 14 13 13 16 15 14 12 12 12 11 10 10 10 12 12 12 9 10 10 11 12 22 24 28 28 30 36 36 38 39 37
2 3 3 3 3 3 5 6 9 10 11 11 11 11 11 13 14 13 9 10 10 9 9 9 9 9 9 9 9 9 10 10 13 13 14 13 12 17 22 31 33 35 38
2 4 5 4 5 1 9 10 7 7 9 8 7 9 10 10 14 17 16 17 16 14 12 9 10 11 12 9 10 10 11 11 11 12 15 14 13 13 11 21 25 33 34
4 4 4 4 4 7 12 11 9 6 7 7 8 9 9 7 8 10 12 16 16 18 20 17 17 15 15 11 13 14 14 14 14 12 13 16 11 15 14 22 30 33 34
4 4 4 4 3 8 13 12 10 9 9 10 9 9 9 9 10 9 9 11 15 16 10 8 13 16 17 16 15 15 16 15 15 12 11 14 11 14 13 18 27 30 35
3 6 5 5 6 9 16 17 15 6 4 1 4 9 8 8 11 12 9 10 11 11 13 16 18 20 21 21 18 10 12 13 13 13 7 10 13 14 12 14 16 25 32
7 6 8 9 11 9 18 20 18 5 3 2 3 5 17 12 11 12 8 8 9 9 13 15 14 15 16 15 17 8 9 11 11 13 9 8 12 10 9 11 13 14 14
Wind_Direction
176 172 165 168 177 159 164 162 144 153 146 150 150 150 153 123 142 122 121 140 139 150 141 148 137 157 146 152 145 153 147 147 141 139 133 124 116 108 106 85 75 66 63
181 175 169 174 174 172 162 163 162 151 157 151 157 156 164 155 153 152 149 153 128 174 168 159 164 176 172 173 176 175 163 178 158 156 167 164 157 144 122 102 85 72 59
183 182 175 175 175 172 165 161 166 159 155 169 159 165 168 168 169 170 181 160 165 171 202 191 177 186 190 207 200 214 205 207 204 205 202 208 195 186 186 202 182 236 313
188 184 183 180 174 171 175 170 175 173 170 172 164 169 189 184 184 199 209 208 199 176 175 194 210 219 218 228 213 224 222 218 236 225 230 221 228 231 228 234 236 254 261
195 191 189 182 177 178 182 184 183 189 175 179 180 183 197 201 191 202 219 221 222 235 218 171 202 219 226 224 233 232 235 231 233 240 235 240 239 243 249 241 248 251 256
195 198 190 190 189 184 185 195 195 191 192 185 182 191 200 210 219 219 220 230 228 225 229 231 197 220 220 229 231 239 243 237 234 238 238 238 246 245 247 254 254 251 253
193 198 197 192 199 201 198 195 195 189 191 181 187 206 216 223 229 236 229 231 230 229 229 229 237 243 202 211 222 233 241 246 237 235 238 236 240 242 245 249 252 252 254
196 200 205 195 197 199 200 200 201 191 196 190 197 208 218 203 224 228 234 230 235 240 234 234 240 242 249 239 222 221 234 242 246 242 236 237 237 239 242 246 248 249 252
202 200 205 205 199 204 199 202 201 202 202 200 225 222 204 236 167 187 218 231 230 233 241 241 241 242 245 249 251 228 222 234 241 245 247 241 236 238 241 244 248 249 250
210 201 203 209 206 208 208 208 207 210 218 205 205 232 255 304 247 205 203 212 232 232 232 234 238 239 241 244 245 249 248 228 234 239 244 247 250 241 240 244 247 248 251
213 209 207 208 210 214 216 218 216 214 213 223 207 210 226 236 243 260 267 199 204 233 237 229 234 234 233 237 241 243 235 237 236 236 238 243 246 249 248 245 245 247 249
213 215 217 214 214 213 216 218 225 222 225 222 228 223 220 217 226 233 246 254 275 270 217 230 238 241 239 236 236 243 242 232 234 238 237 238 240 244 246 249 248 249 248
200 213 217 220 219 219 215 216 216 225 227 227 228 225 227 236 244 227 245 258 263 258 268 257 248 248 249 245 245 238 239 242 240 240 238 236 237 239 242 244 247 248 250
201 205 210 226 220 225 223 224 226 225 226 227 229 229 237 237 240 244 245 254 265 261 242 245 242 246 237 238 245 244 241 243 241 239 237 237 236 235 237 240 242 244 245
207 224 209 207 225 225 233 225 225 226 227 226 230 230 234 243 243 243 246 247 251 266 268 263 257 253 243 252 246 240 238 244 246 242 237 235 242 239 233 234 237 239 241
174 157 87 284 231 226 217 209 225 241 232 233 230 233 233 236 240 242 241 247 244 247 263 265 264 264 266 260 255 245 253 249 250 246 244 236 235 238 243 241 237 234 235
228 198 192 215 242 237 235 201 207 226 241 238 238 237 238 240 244 244 241 242 246 244 250 265 270 267 264 257 261 259 254 259 260 247 245 242 238 239 236 237 238 241 239
7 226 218 234 249 242 236 217 215 214 226 232 235 236 242 242 243 246 249 246 247 247 245 257 263 266 258 260 258 253 262 259 258 260 248 244 240 239 238 236 235 236 236
2 315 300 302 217 218 226 208 207 233 233 234 240 237 243 246 247 244 243 244 251 252 249 243 259 269 271 266 268 257 258 262 264 261 256 249 239 240 242 239 240 239 238
261 276 262 261 299 253 216 219 223 221 234 234 240 240 249 249 245 241 241 244 248 253 252 246 248 258 269 264 257 259 260 257 264 265 262 258 253 244 240 238 240 240 238
289 279 279 283 310 315 8 331 255 239 238 240 243 245 244 249 252 252 252 248 242 248 250 253 256 254 252 259 248 254 256 260 260 268 270 265 256 247 247 242 245 241 241
258 264 256 268 275 268 16 5 349 311 293 260 256 257 253 243 247 243 243 246 258 266 261 258 259 258 255 246 251 251 254 257 266 246 261 260 257 256 252 247 246 234 235
314 271 261 279 283 36 18 359 337 291 274 274 280 280 281 275 267 276 249 238 249 247 243 258 268 267 269 263 262 258 253 254 256 258 262 267 253 261 253 257 243 236 233
304 296 314 305 330 49 7 354 320 267 262 262 272 282 297 307 36 355 323 298 278 276 272 249 250 261 265 268 259 263 261 261 261 260 250 266 258 257 259 253 250 238 229
340 54 38 49 63 48 14 359 334 311 304 351 74 50 37 24 1 3 343 320 314 304 311 301 300 297 295 284 272 283 277 276 275 272 245 249 262 265 258 261 261 245 230
66 65 62 56 38 33 26 7 359 356 3 2 70 87 58 21 0 10 3 352 331 333 329 310 308 300 289 283 270 245 273 274 278 281 255 243 262 261 271 248 248 251 251